Location: White Mills Observatory
(37.5374°N, 86.0303°W)
Time: 06:05:14
(UTC-04:00)

Hubble Space Telescope - Visible Passes

Search period start: 29 April 2016 00:00
Search period end: 09 May 2016 00:00
Orbit: 539 x 543 km, 28.5° (Epoch: 27 April)

Date Brightness Start Highest point End Pass type
(mag) Time Alt. Az. Time Alt. Az. Time Alt. Az.
29 Apr 3.0 05:36:19 11° S 05:37:56 13° SSE 05:39:58 10° SE visible
30 Apr 2.7 05:27:07 14° S 05:28:12 16° SSE 05:30:41 10° SE visible
01 May 2.5 05:17:54 17° S 05:18:29 18° SSE 05:21:16 10° SE visible
02 May 2.4 05:08:42 19° S 05:08:46 19° S 05:11:46 10° ESE visible
03 May 2.4 04:59:30 21° SSE 04:59:30 21° SSE 05:02:12 10° ESE visible
04 May 2.5 04:50:21 20° SSE 04:50:21 20° SSE 04:52:36 10° ESE visible
05 May 2.7 04:41:15 18° SE 04:41:15 18° SE 04:42:56 10° SE visible
05 May 2.4 06:17:25 10° SW 06:20:20 19° S 06:23:15 10° SE visible
06 May 3.0 04:32:14 15° SE 04:32:14 15° SE 04:33:14 10° SE visible
06 May 2.5 06:07:57 10° SW 06:10:37 17° SSW 06:13:17 10° SSE visible
07 May 3.3 04:23:19 11° SE 04:23:19 11° SE 04:23:31 10° SE visible
07 May 2.7 05:58:44 11° SW 06:00:53 15° SSW 06:03:12 10° SSE visible
08 May 2.8 05:49:58 11° SW 05:51:08 12° SSW 05:52:53 10° S visible
